| time (UTC) | temp C | wind direction | speed KPH | gust KPH | rain 1hr cm | rain 24hr cm | rain mn cm | humidity % | barometer mb |
| 20260508004514 | 17 | 334 | 4.8 | 8.0 | 0.00 | 0.00 | 0.00 | 69 | 1006.9 |
| 20260508003037 | 17 | 355 | 4.8 | 9.7 | 0.00 | 0.00 | 0.00 | 69 | 1007.1 |
| 20260508001629 | 17 | 327 | 4.8 | 12.9 | 0.00 | 0.00 | 0.00 | 68 | 1007.5 |
| 20260508000020 | 17 | 360 | 4.8 | 12.9 | 0.00 | 0.00 | 0.00 | 70 | 1007.7 |
| 20260507234547 | 17 | 13 | 6.4 | 14.5 | 0.00 | 0.00 | 0.00 | 70 | 1007.8 |
| 20260507233008 | 17 | 360 | 6.4 | 9.7 | 0.00 | 0.00 | 0.00 | 70 | 1008.0 |
| 20260507231536 | 17 | 360 | 6.4 | 12.9 | 0.00 | 0.00 | 0.00 | 69 | 1008.1 |
| 20260507230038 | 17 | 24 | 8.0 | 12.9 | 0.00 | 0.00 | 0.00 | 68 | 1008.3 |
| 20260507224604 | 17 | 22 | 6.4 | 9.7 | 0.00 | 0.00 | 0.00 | 68 | 1008.6 |
| 20260507223024 | 17 | 57 | 4.8 | 9.7 | 0.00 | 0.00 | 0.00 | 69 | 1008.7 |
| 20260507221534 | 17 | 14 | 8.0 | 12.9 | 0.00 | 0.00 | 0.00 | 70 | 1008.6 |
| 20260507220044 | 17 | 360 | 4.8 | 12.9 | 0.00 | 0.00 | 0.00 | 66 | 1008.7 |
| 20260507214502 | 18 | 46 | 0.0 | 4.8 | 0.00 | 0.05 | 0.00 | 71 | 1008.9 |
| 20260507213024 | 18 | 46 | 0.0 | 1.6 | 0.00 | 0.05 | 0.00 | 70 | 1008.9 |
| 20260507211536 | 18 | 46 | 0.0 | 3.2 | 0.00 | 0.05 | 0.00 | 69 | 1008.9 |
| 20260507210044 | 18 | 46 | 3.2 | 8.0 | 0.00 | 0.05 | 0.00 | 69 | 1008.8 |
| 20260507204505 | 17 | 26 | 4.8 | 12.9 | 0.00 | 0.08 | 0.00 | 75 | 1008.8 |
| 20260507203029 | 17 | 29 | 6.4 | 12.9 | 0.00 | 0.08 | 0.00 | 78 | 1008.9 |
| 20260507201556 | 17 | 21 | 6.4 | 8.0 | 0.00 | 0.08 | 0.00 | 78 | 1009.1 |
| 20260507200108 | 17 | 37 | 6.4 | 12.9 | 0.00 | 0.08 | 0.00 | 78 | 1009.2 |
| 20260507194605 | 17 | 30 | 4.8 | 12.9 | 0.00 | 0.08 | 0.00 | 81 | 1009.2 |
| 20260507193025 | 17 | 23 | 4.8 | 8.0 | 0.00 | 0.08 | 0.00 | 82 | 1009.1 |
| 20260507191552 | 17 | 23 | 3.2 | 6.4 | 0.00 | 0.08 | 0.00 | 84 | 1009.2 |
| 20260507190006 | 17 | 25 | 4.8 | 9.7 | 0.00 | 0.08 | 0.00 | 84 | 1009.1 |
| 20260507184531 | 18 | 22 | 6.4 | 9.7 | 0.00 | 0.08 | 0.00 | 83 | 1009.0 |
| 20260507183052 | 18 | 22 | 4.8 | 8.0 | 0.00 | 0.08 | 0.00 | 83 | 1009.1 |
| 20260507181509 | 18 | 5 | 4.8 | 8.0 | 0.00 | 0.08 | 0.00 | 83 | 1009.1 |
| 20260507180026 | 17 | 211 | 1.6 | 4.8 | 0.00 | 0.08 | 0.00 | 83 | 1009.2 |
| 20260507174556 | 17 | 211 | 1.6 | 3.2 | 0.00 | 0.08 | 0.00 | 83 | 1009.3 |
| 20260507173012 | 18 | 211 | 1.6 | 3.2 | 0.00 | 0.08 | 0.00 | 83 | 1009.3 |
| 20260507171537 | 18 | 211 | 0.0 | 4.8 | 0.00 | 0.08 | 0.00 | 82 | 1009.4 |
| 20260507170057 | 18 | 211 | 1.6 | 8.0 | 0.00 | 0.08 | 0.00 | 81 | 1009.4 |
| 20260507164518 | 18 | 219 | 1.6 | 4.8 | 0.00 | 0.08 | 0.00 | 81 | 1009.4 |
| 20260507163041 | 18 | 221 | 4.8 | 6.4 | 0.00 | 0.08 | 0.00 | 80 | 1009.4 |
| 20260507161549 | 18 | 184 | 3.2 | 8.0 | 0.00 | 0.08 | 0.00 | 79 | 1009.4 |
| 20260507160057 | 19 | 182 | 4.8 | 11.3 | 0.00 | 0.08 | 0.00 | 77 | 1009.6 |
| 20260507154606 | 19 | 213 | 4.8 | 14.5 | 0.00 | 0.08 | 0.00 | 76 | 1009.6 |
| 20260507153024 | 20 | 219 | 4.8 | 12.9 | 0.00 | 0.08 | 0.00 | 75 | 1009.6 |
| 20260507151550 | 20 | 157 | 8.0 | 16.1 | 0.00 | 0.08 | 0.00 | 74 | 1009.7 |
| 20260507150008 | 20 | 146 | 8.0 | 16.1 | 0.00 | 0.08 | 0.00 | 72 | 1009.8 |
| 20260507144534 | 20 | 165 | 8.0 | 16.1 | 0.00 | 0.08 | 0.00 | 73 | 1009.8 |
| 20260507143057 | 20 | 251 | 9.7 | 16.1 | 0.00 | 0.08 | 0.00 | 74 | 1009.8 |
| 20260507141518 | 19 | 186 | 8.0 | 14.5 | 0.00 | 0.08 | 0.00 | 75 | 1010.0 |
| 20260507140045 | 19 | 171 | 4.8 | 12.9 | 0.00 | 0.08 | 0.00 | 74 | 1010.2 |
| 20260507134503 | 19 | 163 | 6.4 | 16.1 | 0.00 | 0.08 | 0.00 | 74 | 1010.5 |
| 20260507133026 | 20 | 202 | 1.6 | 11.3 | 0.00 | 0.08 | 0.00 | 73 | 1010.6 |
| 20260507131600 | 18 | 253 | 4.8 | 11.3 | 0.00 | 0.08 | 0.00 | 76 | 1010.8 |
| 20260507130105 | 18 | 182 | 6.4 | 12.9 | 0.00 | 0.08 | 0.00 | 75 | 1010.8 |
| 20260507124512 | 18 | 279 | 6.4 | 12.9 | 0.00 | 0.08 | 0.00 | 77 | 1011.0 |
| 20260507123032 | 18 | 149 | 3.2 | 14.5 | 0.00 | 0.08 | 0.00 | 75 | 1011.2 |
| 20260507121549 | 18 | 169 | 8.0 | 14.5 | 0.00 | 0.08 | 0.00 | 75 | 1011.4 |
| 20260507120048 | 18 | 202 | 3.2 | 16.1 | 0.00 | 0.08 | 0.00 | 74 | 1011.3 |
| 20260507114614 | 18 | 201 | 6.4 | 17.7 | 0.00 | 0.10 | 0.00 | 74 | 1011.4 |
| 20260507113005 | 18 | 126 | 9.7 | 22.5 | 0.00 | 0.10 | 0.00 | 73 | 1011.6 |
| 20260507111526 | 19 | 184 | 11.3 | 22.5 | 0.00 | 0.10 | 0.00 | 71 | 1011.8 |
| 20260507110053 | 19 | 157 | 11.3 | 29.0 | 0.00 | 0.10 | 0.00 | 69 | 1011.7 |
| 20260507104601 | 20 | 202 | 9.7 | 17.7 | 0.00 | 0.10 | 0.00 | 62 | 1011.7 |
| 20260507103004 | 20 | 201 | 6.4 | 16.1 | 0.00 | 0.10 | 0.00 | 64 | 1011.8 |
| 20260507101530 | 19 | 133 | 8.0 | 14.5 | 0.00 | 0.10 | 0.00 | 66 | 1011.7 |
| 20260507100054 | 19 | 178 | 3.2 | 12.9 | 0.00 | 0.10 | 0.00 | 68 | 1011.8 |
| 20260507094605 | 18 | 196 | 8.0 | 12.9 | 0.00 | 0.10 | 0.00 | 68 | 1011.9 |
| 20260507093021 | 18 | 186 | 6.4 | 12.9 | 0.00 | 0.10 | 0.00 | 68 | 1011.8 |
| 20260507091551 | 18 | 217 | 4.8 | 11.3 | 0.00 | 0.10 | 0.00 | 69 | 1011.6 |
| 20260507090008 | 17 | 202 | 6.4 | 14.5 | 0.00 | 0.10 | 0.00 | 70 | 1011.8 |
| 20260507084531 | 18 | 184 | 6.4 | 9.7 | 0.00 | 0.10 | 0.00 | 69 | 1011.8 |
| 20260507083056 | 18 | 181 | 1.6 | 6.4 | 0.00 | 0.10 | 0.00 | 71 | 1011.7 |
| 20260507081533 | 17 | 182 | 4.8 | 11.3 | 0.00 | 0.10 | 0.00 | 71 | 1011.8 |
| 20260507080038 | 17 | 192 | 1.6 | 6.4 | 0.00 | 0.10 | 0.00 | 71 | 1011.8 |
| 20260507074611 | 17 | 138 | 3.2 | 8.0 | 0.00 | 0.10 | 0.00 | 70 | 1011.9 |
| 20260507073023 | 17 | 299 | 0.0 | 6.4 | 0.00 | 0.10 | 0.00 | 73 | 1012.1 |
| 20260507071549 | 16 | 225 | 4.8 | 11.3 | 0.00 | 0.10 | 0.00 | 75 | 1012.3 |
| 20260507070011 | 17 | 194 | 3.2 | 6.4 | 0.00 | 0.10 | 0.00 | 71 | 1012.2 |
| 20260507064534 | 16 | 321 | 1.6 | 8.0 | 0.00 | 0.18 | 0.00 | 73 | 1012.0 |
| 20260507063041 | 16 | 92 | 0.0 | 9.7 | 0.00 | 0.18 | 0.00 | 76 | 1012.0 |
| 20260507061502 | 16 | 355 | 4.8 | 11.3 | 0.00 | 0.18 | 0.00 | 76 | 1011.9 |
| 20260507060027 | 15 | 21 | 0.0 | 6.4 | 0.00 | 0.18 | 0.00 | 81 | 1011.9 |
| 20260507054636 | 14 | 21 | 0.0 | 1.6 | 0.00 | 0.25 | 0.00 | 83 | 1012.0 |
| 20260507053012 | 13 | 21 | 0.0 | 6.4 | 0.00 | 0.25 | 0.00 | 84 | 1011.8 |
| 20260507051537 | 13 | 21 | 3.2 | 4.8 | 0.00 | 0.25 | 0.00 | 84 | 1011.9 |
| 20260507050052 | 13 | 21 | 3.2 | 8.0 | 0.00 | 0.25 | 0.00 | 84 | 1011.8 |
| 20260507044507 | 13 | 11 | 3.2 | 6.4 | 0.00 | 0.25 | 0.00 | 84 | 1011.8 |
| 20260507043032 | 13 | 360 | 3.2 | 6.4 | 0.00 | 0.25 | 0.00 | 83 | 1011.6 |
| 20260507041545 | 13 | 360 | 1.6 | 4.8 | 0.00 | 0.25 | 0.00 | 82 | 1011.6 |
| 20260507040049 | 13 | 360 | 1.6 | 4.8 | 0.00 | 0.25 | 0.00 | 81 | 1011.5 |
| 20260507034513 | 13 | 360 | 1.6 | 4.8 | 0.00 | 0.25 | 0.00 | 82 | 1011.3 |
| 20260507033034 | 13 | 360 | 1.6 | 4.8 | 0.00 | 0.25 | 0.00 | 81 | 1011.4 |
| 20260507031601 | 13 | 360 | 1.6 | 4.8 | 0.00 | 0.25 | 0.00 | 80 | 1011.3 |
| 20260507030002 | 13 | 360 | 1.6 | 4.8 | 0.00 | 0.25 | 0.00 | 80 | 1011.3 |
| 20260507024532 | 13 | 360 | 0.0 | 3.2 | 0.00 | 0.25 | 0.00 | 79 | 1011.4 |
| 20260507023102 | 13 | 360 | 1.6 | 3.2 | 0.00 | 0.25 | 0.00 | 79 | 1011.4 |
| 20260507021512 | 13 | 360 | 0.0 | 3.2 | 0.00 | 0.25 | 0.00 | 79 | 1011.4 |
| 20260507020035 | 13 | 360 | 0.0 | 3.2 | 0.00 | 0.25 | 0.00 | 80 | 1011.3 |
| 20260507014606 | 13 | 23 | 1.6 | 6.4 | 0.00 | 0.25 | 0.00 | 81 | 1011.5 |
| 20260507013018 | 13 | 49 | 4.8 | 9.7 | 0.00 | 0.25 | 0.00 | 82 | 1011.3 |
| 20260507011545 | 13 | 355 | 3.2 | 6.4 | 0.00 | 0.25 | 0.00 | 81 | 1011.4 |
| 20260507010002 | 13 | 53 | 1.6 | 6.4 | 0.00 | 0.25 | 0.00 | 80 | 1011.5 |